Weather in Kalikino

Russia / Ivanovo Oblast     57°13′48″N   40°53′03″E
temp.,
°C
wind,
m/s
gust,
m/s
humid.,
%
clouds,
%
prec.,
mm/h
press.,
hPa
HPBL,
m
15 may, sat
sat1500:00+14ese2396100 1.9 101569
03:00+13ese41097100 3.1 1013220
06:00+15sse1396100 1.6 1013113
09:00+19sse3586100 1.6 1012282
12:00+22ese476588 9.2 1010400
15:00+16sse31294100 20.3 1010404
18:00+17s6158577 0.3 1009700
21:00+15s614941 0.3 1010476
16 may, sun
sun1600:00+14s4119715 0.1 1010297
03:00+13s411965 0.1 1011299
06:00+13ssw512933 0.0 1011465
09:00+17ssw610740 0.0 1012876
12:00+20ssw7105915 0.0 10131758
15:00+22ssw6105718 0.2 10122345
18:00+19sw5106758 0.4 1013738
21:00+14ssw38905 0.4 1014165
17 may, mon
mon1700:00+13sw36940 0.0 1014121
03:00+12sw239453 0.0 101647
06:00+14sw1289100 0.0 101777
09:00+18s237181 0.0 1017510
12:00+22sse235789 0.0 10161203
15:00+24se345446 0.0 10151335
18:00+23e357024 0.0 1014204
21:00+17e499123 0.3 1014148
18 may, tue
tue1800:00+15se379196 0.0 1013109
03:00+14se3789100 0.0 101396
06:00+16se498574 0.0 1012198
09:00+22se513625 0.0 1011510
12:00+26se711495 0.0 10101082
15:00+27se611480 0.0 10101545
18:00+24sse5115740 0.0 1009369
21:00+18se4137359 0.0 1009242
19 may, wed
wed1900:00+17se3784100 0.0 1009145
03:00+16se3692100 0.7 1008119
06:00+17se3791100 0.0 1008209
09:00+20s357696 0.0 1007416
12:00+23se346298 0.0 1006960
15:00+21sse81566100 1.1 10051907
18:00+16se81487100 1.9 1003822
21:00+15se8138835 2.3 1001915